HST 1 20580U 90037B 24318.70665724 .00010647 00000-0 45681-3 0 9994 2 20580 28.4686 61.1695 0001920 215.8958 144.1506 15.21069779699797 ISS (ZARYA) 1 25544U 98067A 24319.39615400 -.01173337 00000-0 -23699-1 0 9994 2 25544 51.6334 291.0867 0006169 180.6462 337.6832 15.48503878481842 CXO 1 25867U 99040B 24321.23407868 .00000577 00000-0 00000-0 0 9999 2 25867 44.6271 141.7671 8729341 304.0864 359.8811 0.37810324 15133